EHI
0 0 0 0 0 0 0 0 0 0 0 0 0 0 0 0 0 0 0 0 0 0 0 0 0 0 0 0 0 0 0 0 0 0 0 0 0 0 0 0 0 0 0
0 0 0 0 0 0 0 0 0 0 0 0 0 0 0 0 0 0 0 0 0 0 0 0 0 0 0 0 0 0 0 0 0 0 0 0 0 0 0 0 0 0 0
0 0 0 0 0 0 0 0 0 0 0 0 0 0 0 0 0 0 0 0 0 0 0 0 0 0 0 0 0 0 0 0 0 0 0 0 0 0 0 0 0 0 0
0 0 0 0 0 0 0 0 0 0 0 0 0 0 0 0 0 0 0 0 0 0 0 0 0 0 0 0 0 0 0 0 0 0 0 0 0 0 0 0 0 0 0
0 0 0 0 0 0 0 0 0 0 0 0 0 0 0 0 0 0 0 0 0 0 0 0 0 0 0 0 0 0 0 0 0 0 0 0 0 0 0 0 0 0 0
0 0 0 0 0 0 0 0 0 0 0 0 0 0 0 0 0 0 0 0 0 0 0 0 0 0 0 0 0 0 0 0 0 0 0 0 0 0 0 0 0 0 0
0 0 0 0 0 0 0 0 0 0 0 0 0 0 0 0 0 0 0 0 0 0 0 0 0 0 0 0 0 0 0 0 0 0 0 0 0 0 0 0 0 0 0
0 0 0 0 0 0 0 0 0 0 0 0 0 0 0 0 0 0 0 0 0 0 0 0 0 0 0 0 0 0 0 0 0 0 0 0 0 0 0 0 0 0 0
0 0 0 0 0 0 0 0 0 0 0 0 0 0 0 0 0 0 0 0 0 0 0 0 0 0 0 0 0 0 0 0 0 0 0 0 0 0 0 0 0 0 0
0 0 0 0 0 0 0 0 0 0 0 0 0 0 0 0 0 0 0 0 0 0 0 0 0 0 0 0 0 0 0 0 0 0 0 0 0 0 0 0 0 0 0
0 0 0 0 0 0 0 0 0 0 0 0 0 0 0 0 0 0 0 0 0 0 0 0 0 0 0 0 0 0 0 0 0 0 0 0 0 0 0 0 0 0 0
0 0 0 0 0 0 0 0 0 0 0 0 0 0 0 0 0 0 0 0 0 0 0 0 0 0 0 0 0 0 0 0 0 0 0 0 0 0 0 0 0 0 0
0 0 0 0 0 0 0 0 0 0 0 0 0 0 0 0 0 0 0 0 0 0 0 0 0 0 0 0 0 0 0 0 0 0 0 0 0 0 0 0 0 0 0
0 0 0 0 0 0 0 0 0 0 0 0 0 0 0 0 0 0 0 0 0 0 0 0 0 0 0 0 0 0 0 0 0 0 0 0 0 0 0 0 0 0 0
0 0 0 0 0 0 0 0 0 0 0 0 0 0 0 0 0 0 0 0 0 0 0 0 0 0 0 0 0 0 0 0 0 0 0 0 0 0 0 0 0 0 0
0 0 0 0 0 0 0 0 0 0 0 0 0 0 0 0 0 0 0 0 0 0 0 0 0 0 0 0 0 0 0 0 0 0 0 0 0 0 0 0 0 0 0
0 0 0 0 0 0 0 0 0 0 0 0 0 0 0 0 0 0 0 0 0 0 0 0 0 0 0 0 0 0 0 0 0 0 0 0 0 0 0 0 0 0 0
0 0 0 0 0 0 0 0 0 0 0 0 0 0 0 0 0 0 0 0 0 0 0 0 0 0 0 0 0 0 0 0 0 0 0 0 0 0 0 0 0 0 0
0 0 0 0 0 0 0 0 0 0 0 0 0 0 0 0 0 0 0 0 0 0 0 0 0 0 0 0 0 0 0 0 0 0 0 0 0 0 0 0 0 0 0
0 0 0 0 0 0 0 0 0 0 0 0 0 0 0 0 0 0 0 0 0 0 0 0 0 0 0 0 0 0 0 0 0 0 0 0 0 0 0 0 0 0 0
0 0 0 0 0 0 0 0 0 0 0 0 0 0 0 0 0 0 0 0 0 0 0 0 0 0 0 0 0 0 0 0 0 0 0 0 0 0 0 0 0 0 0
0 0 0 0 0 0 0 0 0 0 0 0 0 0 0 0 0 0 0 0 0 0 0 0 0 0 0 0 0 0 0 0 0 0 0 0 0 0 0 0 0 0 0
0 0 0 0 0 0 0 0 0 0 0 0 0 0 0 0 0 0 0 0 0 0 0 0 0 0 0 0 0 0 0 0 0 0 0 0 0 0 0 0 0 0 0
0 0 0 0 0 0 0 0 0 0 0 0 0 0 0 0 0 0 0 0 0 0 0 0 0 0 0 0 0 0 0 0 0 0 0 0 0 0 0 0 0 0 0
0 0 0 0 0 0 0 0 0 0 0 0 0 0 0 0 0 0 0 0 0 0 0 0 0 0 0 0 0 0 0 0 0 0 0 0 0 0 0 0 0 0 0
0 0 0 0 0 0 0 0 0 0 0 0 0 0 0 0 0 0 0 0 0 0 0 0 0 0 0 0 0 0 0 0 0 0 0 0 0 0 0 0 0 0 0
Wind_Speed
7 7 8 8 8 8 9 9 9 8 7 5 4 4 3 3 2 2 3 3 3 3 3 2 2 2 2 2 2 2 3 2 2 2 2 2 2 2 2 2 2 3 3
7 8 8 8 8 9 9 9 9 8 7 5 4 3 4 3 3 2 3 3 3 3 3 3 2 2 2 2 2 2 2 2 3 2 1 1 2 3 3 2 2 3 3
8 8 9 9 8 8 9 8 8 8 7 7 5 5 4 3 2 2 2 2 3 3 3 3 2 2 2 2 2 2 2 1 2 2 1 1 1 2 2 2 3 3 3
6 7 8 9 9 8 7 8 8 7 7 7 7 7 6 5 3 3 3 3 3 3 3 3 3 2 2 2 2 2 2 1 1 2 2 1 0 0 2 2 2 3 3
6 6 7 8 8 8 8 7 8 7 7 6 6 6 5 4 4 4 4 3 3 3 3 3 3 2 2 2 2 2 2 1 1 1 1 2 2 1 1 2 2 3 2
4 5 5 7 7 7 7 7 8 7 7 6 6 6 7 6 6 5 4 3 2 2 3 3 3 2 2 2 2 2 2 1 2 1 1 1 1 1 1 1 2 3 3
4 4 6 6 7 8 7 7 8 7 7 7 6 6 6 6 7 6 5 4 3 2 2 2 2 2 2 2 2 2 1 1 1 1 1 1 1 1 1 1 2 3 3
3 3 4 5 6 7 7 7 7 7 7 6 5 5 5 4 4 4 4 4 3 3 3 3 2 2 2 2 2 2 1 1 1 1 1 1 1 1 1 1 1 2 2
2 3 4 5 5 6 6 7 7 7 6 6 5 5 5 4 4 4 4 3 3 3 4 3 3 2 2 2 2 1 1 1 1 1 1 1 1 1 1 1 1 1 3
3 3 4 4 4 5 5 6 6 6 6 5 5 4 4 4 4 4 4 4 4 3 4 3 3 3 2 2 2 1 1 1 0 0 0 1 1 1 1 1 1 1 2
3 3 4 4 5 5 5 5 5 6 5 5 5 4 4 4 4 4 4 4 4 4 4 3 3 3 2 2 2 1 1 1 0 0 0 1 1 1 1 1 1 2 2
3 3 4 5 5 5 5 5 5 5 5 5 5 4 4 4 4 4 3 4 4 3 3 3 3 3 2 2 2 1 1 1 0 0 0 1 1 1 1 1 2 2 2
4 4 4 4 4 4 4 4 5 5 4 5 4 4 4 4 4 3 3 3 3 3 3 3 3 2 2 2 2 1 1 1 1 1 1 1 1 1 1 2 2 2 3
3 3 3 3 3 3 4 4 4 4 5 4 4 4 4 4 4 3 3 3 3 3 3 3 2 2 2 1 1 1 1 1 1 1 1 1 1 2 2 3 3 3 3
2 3 2 2 3 3 3 4 4 4 4 4 4 4 4 3 3 3 3 3 2 2 2 2 2 1 1 1 1 1 1 1 1 1 1 2 3 4 4 3 3 3 3
2 2 2 2 2 2 2 3 3 4 4 4 4 4 4 3 3 3 3 3 2 2 2 2 1 1 1 1 2 1 1 1 1 2 2 3 4 5 6 7 7 6 4
2 1 1 1 2 2 2 3 3 4 4 4 4 3 3 3 3 3 3 2 2 2 2 1 1 1 1 2 2 2 1 1 2 2 2 3 3 4 3 6 7 7 9
2 1 1 1 1 2 3 3 4 4 4 4 3 3 3 3 3 2 2 2 1 2 2 1 1 1 1 2 3 3 1 2 2 2 3 3 3 4 4 3 4 4 5
2 1 1 2 2 2 3 3 4 4 4 3 3 2 2 3 3 2 2 1 1 1 1 1 1 1 1 3 3 3 1 2 2 3 3 3 3 6 7 4 4 5 5
3 2 2 3 3 2 3 4 3 3 3 2 2 2 2 2 2 2 1 1 1 1 1 0 1 1 1 3 3 3 1 2 2 3 3 5 6 7 8 4 3 4 5
4 3 3 3 3 3 3 4 3 2 2 2 2 2 2 2 2 1 1 1 1 1 0 1 1 1 2 3 4 3 1 2 2 3 3 3 7 8 8 7 3 6 6
4 4 3 3 3 3 3 3 2 2 2 3 2 2 2 1 1 2 1 1 1 1 1 1 1 1 2 2 3 4 4 3 2 2 3 3 7 8 9 6 7 9 7
3 3 3 3 3 3 3 3 2 2 3 2 2 2 2 1 1 1 1 1 1 1 1 1 1 1 1 2 4 5 5 6 3 3 6 7 8 8 6 8 9 7 3
3 3 3 3 3 3 3 2 2 3 3 2 2 2 2 1 1 0 0 0 1 1 1 1 1 1 1 1 1 2 3 5 4 4 5 8 8 6 6 6 5 3 3
3 3 3 3 3 3 3 3 3 3 2 2 2 2 1 1 1 0 0 0 1 2 2 2 2 2 2 3 5 3 2 2 3 3 2 2 2 2 2 3 3 2 3
3 3 3 3 3 3 3 2 2 2 2 2 2 1 1 0 1 0 1 2 2 3 3 3 3 3 5 6 7 7 7 7 6 4 2 2 3 3 3 3 3 3 3
Wind_Direction
176 163 160 155 154 155 157 158 157 152 145 144 143 136 130 119 105 99 97 95 89 83 85 81 73 60 56 56 55 49 42 29 21 25 3 356 19 54 55 49 45 35 37
170 161 158 159 163 163 162 161 160 156 154 149 143 135 130 121 115 106 98 98 92 85 91 88 83 77 74 65 58 56 44 26 19 21 3 4 360 17 23 23 39 34 35
177 167 165 166 161 163 165 163 159 157 153 143 132 128 115 112 111 117 113 105 100 89 87 90 82 76 77 83 61 52 60 44 4 24 45 57 333 321 325 5 36 31 22
174 165 165 166 166 163 154 152 151 150 147 145 148 152 154 155 151 142 129 120 111 100 89 87 87 85 78 79 62 45 37 53 12 2 16 33 56 1 320 319 8 16 12
171 167 165 165 159 152 149 151 149 149 147 148 152 152 146 138 132 133 131 123 112 105 101 96 91 86 81 79 65 52 39 42 37 14 355 0 3 4 282 296 334 348 341
145 146 147 143 142 141 143 148 151 151 151 151 151 152 149 144 144 144 142 134 123 115 106 101 98 96 93 92 86 75 52 38 34 20 23 20 7 342 340 318 321 315 310
133 137 141 145 144 146 147 151 151 152 152 152 153 150 150 151 154 152 148 142 136 130 132 115 113 109 102 98 92 88 76 56 48 34 17 18 356 330 330 326 309 307 302
112 127 141 145 146 147 147 151 152 150 150 149 147 144 146 150 149 148 147 147 148 146 139 129 122 114 109 102 95 91 93 75 60 29 28 15 350 346 341 311 315 310 303
111 123 127 131 136 143 149 151 148 147 147 145 140 141 143 141 143 139 137 136 139 142 137 134 129 122 116 111 108 102 97 88 73 49 25 7 335 339 327 314 284 266 290
102 111 115 117 122 129 134 136 142 143 140 138 141 138 137 140 138 134 136 136 137 136 138 137 132 128 125 120 111 100 93 96 82 90 42 321 308 319 314 304 296 276 259
101 102 105 107 111 112 120 128 131 132 134 137 134 129 131 130 129 134 136 137 135 134 141 143 139 138 138 130 122 124 122 121 102 3 348 291 293 295 294 292 289 286 277
91 90 98 104 107 113 120 128 130 132 134 133 132 131 128 124 125 128 131 133 136 135 137 140 142 147 146 139 142 150 142 155 206 267 276 287 303 301 293 290 285 279 276
83 82 86 96 107 112 117 124 125 123 121 123 128 129 131 132 133 131 128 131 136 138 137 140 146 148 149 149 156 162 164 186 218 236 249 270 284 288 293 290 280 279 286
90 92 89 86 92 104 114 120 121 122 124 126 129 133 138 138 135 131 128 130 136 138 141 145 146 147 153 161 169 171 165 186 231 248 263 273 265 267 273 275 273 275 282
75 91 98 96 93 95 102 110 115 118 125 129 129 128 124 123 122 124 126 124 128 132 135 135 133 144 163 177 168 189 202 215 249 264 268 270 273 279 279 280 276 275 269
39 72 90 104 106 107 113 115 118 122 124 127 127 121 121 122 122 125 124 124 129 133 132 141 147 167 194 207 225 247 246 254 252 266 274 272 272 280 288 293 293 289 277
15 41 89 124 122 121 126 129 127 123 122 122 123 122 123 128 128 125 127 138 148 146 150 156 154 179 210 228 243 262 280 264 261 263 273 280 283 290 286 291 295 296 294
15 18 67 91 90 96 102 113 116 117 119 120 121 123 124 128 126 126 134 141 144 160 170 169 178 193 229 249 259 270 273 261 263 263 263 269 279 278 283 286 291 288 289
15 21 66 96 92 91 104 114 113 115 116 119 119 121 125 131 133 139 142 141 143 151 161 163 181 193 252 267 264 269 269 268 270 269 267 269 266 276 281 283 283 290 292
31 53 74 81 84 79 98 112 115 117 122 124 121 118 121 128 135 142 138 136 145 154 160 202 202 205 233 269 273 274 264 274 282 283 280 279 277 283 286 275 267 280 287
34 50 69 80 81 82 95 104 106 111 112 107 105 105 108 122 134 135 133 133 137 127 167 236 264 249 249 266 274 279 280 278 286 291 290 285 292 293 293 291 270 274 289
35 44 58 71 75 86 102 102 94 76 86 98 102 106 109 112 112 128 128 126 147 166 204 221 257 254 258 273 278 285 286 290 280 283 288 288 294 296 297 296 292 294 298
31 40 54 65 65 76 98 107 81 79 87 94 106 111 100 89 96 131 147 152 170 182 230 224 243 272 282 278 286 292 293 293 290 281 291 297 298 298 297 294 296 298 292
34 40 53 64 59 59 70 84 79 83 93 104 107 104 102 95 92 135 163 154 186 202 247 259 263 274 283 277 287 289 294 296 294 290 290 296 298 296 295 298 300 292 280
35 44 52 63 58 55 57 60 72 86 88 87 83 77 80 93 84 58 12 259 231 229 233 238 245 256 265 275 287 293 285 279 273 287 281 283 289 291 290 289 285 285 296
34 41 47 55 56 58 52 50 64 83 90 79 66 60 64 65 71 75 6 335 312 302 293 289 285 280 282 287 289 291 294 295 297 296 285 278 275 278 285 286 283 279 279